SCP
-0 0 0 0 0 0 0 -0 -0 -0 0 0 -0 0 0 -0 0 0 -0 0 0 0 0 0 0 0 0 0 0 0 -0 0 -0 -0 0 0 0 0 0 -0 -0 -0 -0 -0 -0 -0 -0 -0 -0
0 -0 0 0 -0 0 0 0 0 -0 0 -0 -0 -0 0 0 0 0 -0 0 0 0 0 -0 0 0 0 0 -0 -0 -0 0 -0 -0 0 0 0 0 0 -0 -0 -0 -0 -0 -0 -0 0 0 0
0 0 0 0 -0 0 0 -0 -0 0 -0 0 0 0 0 -0 0 -0 -0 0 0 0 0 0 0 0 0 0 -0 -0 -0 0 -0 0 0 -0 -0 0 -0 0 0 0 0 -0 -0 -0 0 0 0
0 -0 0 0 0 -0 -0 -0 -0 -0 0 0 0 0 0 0 -0 0 0 0 0 0 0 0 0 0 0 0 0 -0 -0 0 -0 0 -0 -0 0 -0 -0 0 0 0 0 0 0 0 0 -0 0
-0 0 0 0 0 0 -0 -0 0 0 0 0 0 0 0 0 0 -0 0 0 0 0 -0 0 0 0 0 0 -0 0 0 0 0 0 -0 0 0 0 -0 0 0 0 0 0 0 -0 0 0 0
0 0 0 0 0 -0 0 0 0 0 -0 -0 -0 -0 0 0 -0 -0 0 0 0 0 -0 -0 0 0 0 -0 -0 0 0 0 0 0 0 0 0 0 0 0 0 0 0 0 0 0 0 0 0
0 0 0 0 -0 0 0 0 0 0 -0 0 -0 0 0 -0 0 0 0 0 0 0 -0 -0 -0 -0 0 0 -0 -0 0 -0 0 0 0 0 0 0 0 0 0 0 0 0 0 0 0 0 0
0 0 -0 0 0 0 0 0 0 0 0 -0 -0 0 0 0 0 -0 0 0 0 -0 -0 -0 -0 -0 -0 -0 0 -0 0 -0 0 0 0 0 0 0 0 0 0 0 0 0 0 0 0 0 0
0 0 0 0 0 0 0 0 0 0 -0 0 0 0 -0 -0 0 -0 0 0 0 -0 -0 -0 -0 -0 -0 -0 -0 -0 0 0 0 0 0 0 0 0 0 0 0 0 0 0 0 -0 0 0 0
0 0 0 0 0 0 -0 0 0 0 -0 0 0 -0 -0 -0 -0 -0 -0 -0 0 0 -0 -0 -0 -0 -0 0 0 0 0 0 0 0 0 0 0 0 0 0 0 0 0 0 0 0 0 0 -0
0 0 0 0 0 -0 -0 -0 -0 -0 0 0 -0 -0 -0 -0 -0 -0 -0 -0 0 0 -0 -0 -0 -0 -0 0 0 0 0 0 0 0 0 0 0 0 0 0 0 0 0 0 -0 -0 -0 0 0
0 -0 0 0 0 0 0 0 -0 0 -0 -0 -0 -0 -0 -0 -0 -0 -0 -0 0 0 0 -0 -0 -0 -0 0 0 0 -0 0 0 0 0 0 0 0 0 -0 -0 0 0 0 -0 0 0 0 0
0 0 0 0 0 0 0 0 0 -0 -0 -0 -0 -0 -0 -0 -0 -0 -0 0 0 0 -0 -0 -0 -0 -0 0 0 0 -0 -0 0 0 0 -0 0 0 -0 -0 -0 0 0 0 0 0 0 0 0
0 0 0 0 0 0 0 0 0 0 -0 -0 -0 -0 -0 -0 -0 0 -0 -0 0 0 -0 -0 -0 -0 -0 0 0 -0 -0 0 0 0 0 0 0 0 0 0 0 0 0 0 -0 -0 -0 0 -0
-0 0 0 0 0 0 0 0 0 -0 -0 -0 -0 -0 -0 -0 -0 -0 0 -0 -0 -0 -0 -0 -0 -0 -0 -0 0 -0 -0 0 0 -0 0 0 0 0 0 0 0 0 0 -0 -0 0 -0 -0 0
0 0 0 0 0 0 0 0 0 -0 -0 -0 -0 -0 -0 -0 -0 0 0 -0 -0 0 -0 -0 -0 -0 -0 -0 -0 -0 -0 0 0 0 0 0 0 0 0 0 0 0 -0 0 -0 -0 0 0 -0
0 0 -0 0 0 0 0 0 0 -0 -0 -0 -0 -0 -0 -0 -0 0 -0 0 0 -0 -0 -0 -0 -0 -0 -0 -0 -0 -0 0 0 -0 0 0 0 0 0 0 0 0 0 0 -0 -0 0 0 -0
0 0 0 0 0 0 0 0 0 0 0 0 -0 -0 -0 -0 -0 0 -0 -0 -0 -0 -0 -0 -0 -0 -0 -0 -0 -0 -0 -0 -0 0 0 0 0 0 0 0 0 0 0 0 0 -0 -0 -0 0
0 0 0 0 0 0 0 0 0 0 0 0 -0 -0 -0 -0 -0 -0 0 -0 -0 0 -0 -0 -0 -0 -0 0 0 -0 -0 -0 -0 -0 0 -0 0 0 0 0 0 0 0 0 -0 -0 -0 -0 0
0 0 0 0 0 0 0 0 0 0 0 0 0 0 -0 -0 -0 -0 -0 0 0 -0 -0 0 -0 -0 -0 0 0 0 0 0 0 0 0 0 0 0 0 0 0 0 0 0 0 0 -0 0 0
0 0 0 0 0 0 0 0 0 0 0 0 0 0 -0 -0 -0 -0 -0 0 -0 -0 0 0 0 -0 0 0 0 0 0 0 0 0 0 0 0 0 0 0 0 0 0 0 0 0 0 0 0
0 0 0 0 0 0 0 0 0 0 0 0 0 0 0 -0 -0 -0 -0 0 0 0 0 0 0 -0 0 0 0 0 0 0 0 0 0 0 0 0 0 0 0 0 -0 0 0 0 -0 -0 0
0 0 0 0 0 0 0 0 0 0 0 0 0 0 -0 -0 -0 -0 -0 0 0 0 0 0 0 0 0 0 0 0 0 0 0 0 0 0 0 0 0 0 0 -0 -0 -0 0 0 0 -0 -0
0 0 0 0 0 0 0 0 0 0 -0 0 0 0 0 -0 -0 -0 -0 0 0 0 0 0 0 0 -0 0 0 0 0 0 0 0 0 0 0 0 -0 -0 -0 -0 -0 -0 -0 -0 -0 -0 -0
0 0 0 0 0 0 0 0 -0 -0 0 0 0 0 -0 -0 -0 -0 -0 -0 -0 0 0 0 0 0 -0 -0 0 0 0 0 0 0 0 0 0 0 0 -0 -0 0 0 -0 -0 -0 0 -0 0
0 0 0 0 0 0 0 0 0 -0 0 0 0 0 0 0 0 -0 -0 -0 0 0 0 -0 -0 0 0 0 0 0 0 0 0 0 0 0 0 0 0 -0 -0 0 0 0 -0 -0 -0 0 -0
0 0 0 0 0 0 0 0 0 0 -0 -0 0 0 0 0 0 -0 -0 -0 0 0 0 0 0 -0 0 0 0 0 0 0 0 0 0 0 0 0 -0 -0 0 -0 -0 -0 -0 -0 -0 -0 -0
0 0 0 0 0 0 0 0 -0 0 0 0 0 0 0 0 0 0 0 -0 0 0 0 0 0 0 0 0 0 0 0 0 0 0 0 0 0 -0 -0 -0 0 -0 -0 -0 -0 0 0 -0 -0
0 0 0 0 0 0 0 0 0 0 0 -0 0 0 0 0 0 0 0 0 0 0 0 0 0 0 0 0 0 0 0 0 0 0 0 0 -0 -0 -0 -0 -0 -0 0 0 0 -0 -0 0 0
0 0 0 0 0 0 0 0 0 0 0 0 0 0 0 0 0 0 0 0 0 0 0 0 0 0 0 0 0 0 0 0 0 0 0 0 0 -0 0 -0 -0 -0 -0 0 -0 -0 -0 -0 -0
Wind_Speed_500mb
18 20 15 9 5 3 7 1 4 8 8 7 43 14 16 11 4 4 58 59 64 61 58 50 44 42 37 32 31 31 28 27 26 24 24 23 24 23 23 21 19 22 23 19 19 21 24 24 26
19 18 12 6 3 2 5 5 7 6 22 48 27 32 9 5 9 35 72 69 63 62 58 49 44 40 37 33 33 31 30 29 28 27 26 24 24 25 26 23 24 23 22 23 22 24 26 26 26
22 14 6 3 1 3 4 2 5 20 63 34 13 18 8 8 16 87 69 74 68 64 58 48 44 40 37 34 34 30 30 28 28 28 27 26 25 26 26 25 26 26 27 26 25 26 27 26 28
21 6 8 4 4 6 6 8 20 33 25 14 29 16 9 5 69 62 77 73 70 64 58 49 43 40 37 34 33 31 33 33 29 26 25 26 26 25 26 27 26 25 25 23 24 27 27 27 27
19 6 2 5 5 5 1 2 20 19 14 15 6 8 12 33 34 74 76 72 70 64 58 50 43 39 36 33 32 30 34 32 30 28 23 24 25 26 27 27 26 26 25 24 21 23 28 32 30
5 3 2 4 5 3 4 5 20 13 14 19 20 22 14 22 56 80 72 69 66 64 59 50 42 38 36 30 30 31 35 31 28 28 25 25 28 30 30 28 28 28 26 21 19 22 24 25 28
6 5 4 4 7 5 2 5 20 13 17 10 40 10 20 40 75 71 70 66 63 60 57 49 42 37 35 33 28 29 31 28 28 27 27 28 31 32 30 28 28 27 24 23 22 20 22 24 24
5 4 3 8 2 2 1 6 12 18 4 39 29 17 24 67 74 71 69 66 57 59 54 48 43 38 35 33 30 30 30 27 27 27 28 28 30 29 27 26 26 24 28 27 28 25 25 23 23
6 1 5 7 3 3 14 10 6 17 36 12 26 30 60 82 69 71 69 63 56 58 54 49 44 39 36 32 31 31 29 27 27 27 27 26 24 24 24 23 24 25 25 27 27 25 21 20 20
10 5 11 8 6 3 10 17 25 15 32 8 25 42 81 83 74 77 76 71 62 62 57 51 44 41 37 33 31 31 29 28 28 29 26 24 21 21 20 19 18 22 21 24 25 24 21 17 17
13 10 8 5 6 18 18 12 15 35 10 27 71 85 95 87 78 72 77 74 69 65 59 53 46 41 36 32 31 29 30 32 27 25 24 20 15 15 17 17 16 19 19 18 20 23 18 13 17
8 23 25 10 13 7 11 20 10 32 9 38 59 98 107 88 83 77 82 79 72 67 61 54 49 43 37 32 31 29 31 26 24 25 21 17 16 13 16 19 19 17 18 16 14 13 14 10 9
18 6 6 23 27 29 14 20 12 33 2 30 68 86 88 80 76 74 80 76 72 68 62 56 50 45 39 35 33 32 30 27 23 20 21 19 16 12 15 18 13 12 9 13 14 13 10 9 14
19 26 26 25 33 25 11 7 15 19 24 57 84 86 81 79 81 83 80 77 73 67 62 56 51 46 41 37 34 33 30 32 23 24 21 19 14 10 10 13 10 11 11 9 10 7 10 17 12
27 9 8 15 13 13 17 4 10 31 43 70 71 78 76 76 87 92 86 81 77 70 63 59 52 46 44 40 36 38 32 32 23 21 19 18 10 12 12 9 13 12 8 3 8 9 7 14 8
11 9 2 9 21 14 29 18 7 48 60 62 67 73 72 71 87 88 84 79 76 71 67 60 54 50 46 45 43 40 35 29 23 19 18 16 13 12 6 9 13 11 11 6 8 5 8 12 13
10 7 14 6 16 6 18 9 19 50 53 56 65 71 71 66 71 81 86 80 76 73 70 64 59 54 52 46 46 42 34 28 25 25 19 14 8 9 6 7 14 9 9 5 2 3 7 7 15
11 8 7 12 14 15 14 15 25 47 50 54 62 67 70 73 79 80 82 81 75 73 70 65 61 57 58 48 49 44 37 32 30 28 26 18 12 7 10 10 9 9 4 5 9 3 7 12 15
10 9 12 8 10 11 21 20 29 45 41 46 56 62 69 71 73 75 81 78 76 74 74 70 65 65 63 61 57 53 44 36 35 33 26 23 16 9 8 10 9 10 7 9 11 9 4 13 16
13 6 7 7 6 13 12 29 20 35 53 62 59 65 68 62 68 74 78 80 81 78 78 75 69 71 68 66 61 58 47 38 34 33 29 26 20 16 12 9 11 9 8 9 9 6 12 11 15
16 32 12 6 4 15 9 10 12 25 26 43 50 64 61 71 77 76 85 88 83 87 84 80 74 74 72 66 62 58 53 48 44 41 33 28 25 21 17 12 11 13 9 9 6 4 16 10 14
18 31 24 13 5 8 16 9 11 16 34 36 54 64 63 72 74 76 82 93 97 92 85 81 79 77 74 69 67 63 59 57 55 49 42 37 28 24 23 18 12 15 13 11 8 12 15 12 15
22 17 28 25 11 8 9 5 12 23 24 39 50 68 70 73 80 85 94 97 98 93 89 88 86 84 80 77 74 69 65 60 57 56 52 49 42 34 29 24 19 14 15 16 17 15 19 15 20
12 2 7 7 9 19 24 14 11 14 33 35 49 63 71 76 83 89 93 89 92 94 92 92 90 90 85 82 77 78 75 68 62 58 62 60 53 46 38 31 27 19 15 17 20 15 16 20 21
25 20 4 6 10 26 21 24 27 11 25 36 43 71 76 78 76 88 91 93 95 98 100 100 100 94 91 84 78 78 81 73 61 55 51 60 64 58 49 43 33 26 20 19 23 24 21 23 28
29 20 13 17 9 25 11 17 15 40 32 45 60 65 61 68 77 80 93 101 102 102 101 103 104 99 95 90 82 75 79 79 69 60 53 50 56 55 45 39 37 30 24 22 24 26 28 25 26
13 34 21 9 2 3 19 10 14 12 37 41 41 44 63 80 89 97 88 99 102 104 107 109 106 106 93 93 86 81 77 81 77 66 57 52 50 50 48 38 37 36 32 30 28 30 30 30 33
16 6 15 6 14 10 7 14 21 22 20 27 14 40 62 79 94 76 85 97 102 100 106 110 110 106 96 92 92 83 77 76 80 73 64 57 53 51 50 46 42 40 37 36 37 35 33 36 33
9 18 11 13 15 16 4 12 13 24 31 30 25 56 62 74 86 93 98 99 98 95 99 107 112 111 107 95 94 89 81 77 82 79 67 61 57 52 53 51 47 45 42 40 41 38 38 37 33
10 10 14 16 23 13 8 15 8 19 17 26 42 66 71 76 91 95 94 94 93 98 100 108 111 110 105 99 96 96 88 79 79 81 70 62 62 58 55 53 50 50 50 47 45 44 43 43 44
Wind_Direction_500mb
161 161 158 182 227 233 269 137 97 99 97 140 141 151 152 76 157 169 147 153 154 148 146 145 144 138 132 131 127 124 126 123 125 127 131 132 133 132 127 124 119 118 115 108 103 91 97 111 117
161 157 181 271 279 274 334 6 30 136 120 127 104 116 89 91 116 143 149 155 157 152 151 147 146 139 136 134 128 124 126 125 124 125 127 126 126 130 126 123 121 120 111 110 97 104 103 109 114
157 167 277 257 171 205 242 73 322 119 142 131 105 98 75 118 147 149 155 155 158 156 153 149 149 142 140 136 130 133 131 128 126 125 123 126 127 128 128 121 120 114 105 101 104 108 105 103 111
156 191 276 266 228 225 210 336 119 123 115 118 121 74 74 164 148 156 155 157 160 158 155 152 149 146 143 138 138 135 131 127 127 126 125 124 122 125 129 123 118 113 109 106 104 112 111 109 110
160 200 283 282 258 258 188 105 127 130 91 71 79 106 89 127 159 155 156 160 162 159 159 155 150 149 145 138 133 134 132 127 123 119 123 125 124 123 122 123 117 110 104 109 119 119 117 111 114
172 144 125 238 256 280 5 46 138 102 116 130 101 112 132 157 158 155 158 161 162 161 160 157 153 151 145 142 137 136 135 132 128 122 120 119 120 118 118 121 117 106 98 104 122 131 129 115 115
178 130 234 266 242 158 210 13 141 117 134 143 143 100 141 158 159 157 160 162 161 162 162 160 158 154 149 146 143 140 136 137 135 131 127 121 121 119 118 118 110 100 95 91 115 125 131 124 118
203 125 276 244 272 198 156 88 118 105 99 134 155 162 169 167 161 160 161 161 163 165 167 164 162 158 154 152 150 145 140 141 140 136 129 129 129 124 119 114 111 100 91 90 100 106 121 117 107
200 288 237 251 201 160 152 148 130 122 143 156 179 161 166 163 161 160 162 162 166 170 170 169 167 162 158 155 153 150 144 147 143 137 133 133 133 129 122 120 116 105 97 96 101 103 112 106 100
204 189 226 221 166 166 157 171 140 144 156 99 129 152 161 161 165 164 167 168 172 172 173 171 171 166 162 160 160 154 147 148 141 135 132 132 136 140 136 129 120 120 112 104 108 109 101 97 99
186 215 222 307 128 144 151 142 152 147 208 179 151 154 163 164 169 169 173 174 176 174 174 174 174 170 167 165 164 156 150 149 145 143 139 133 137 151 147 137 122 128 129 125 120 107 113 113 104
210 231 259 311 335 320 176 159 159 171 217 208 184 171 167 168 171 174 177 178 179 178 176 175 176 173 170 170 165 160 157 158 148 144 137 133 133 138 144 146 142 134 131 135 135 133 138 170 146
234 210 249 246 283 300 189 176 185 205 230 167 166 167 169 169 173 179 181 182 181 181 177 177 177 174 174 174 168 162 159 157 157 153 138 146 140 151 157 142 135 119 139 154 146 136 120 120 168
227 239 277 284 274 280 235 155 183 160 170 159 164 167 173 175 178 182 185 185 186 184 181 179 179 176 180 176 175 168 165 170 150 142 133 138 124 143 174 186 152 141 134 150 165 165 114 123 120
246 312 319 234 235 232 215 280 220 171 166 157 166 170 176 180 184 188 188 190 187 187 184 184 181 179 183 179 178 172 162 165 163 157 142 131 139 146 151 139 151 147 159 151 159 138 145 147 131
180 113 193 276 184 240 166 239 119 161 155 166 170 176 180 185 193 193 193 193 193 190 190 188 186 184 184 181 178 173 175 178 183 171 158 151 149 172 158 175 166 157 157 125 137 117 116 144 156
358 195 197 285 201 158 182 222 158 167 167 174 177 180 184 189 195 199 201 198 198 195 193 192 191 189 184 182 184 188 189 197 199 201 189 177 164 178 182 188 192 179 161 163 122 127 102 133 155
202 220 222 174 207 183 196 220 161 174 174 181 181 186 188 194 197 202 206 203 203 202 199 198 196 193 190 189 190 193 200 201 201 200 197 184 181 174 175 198 205 189 203 213 172 138 106 149 166
167 196 216 212 204 142 201 222 178 178 182 185 186 190 196 199 198 202 209 209 208 207 204 203 201 197 196 196 197 201 206 204 204 208 210 197 193 192 191 222 231 212 244 218 184 171 184 170 188
232 241 252 289 226 176 214 233 178 179 197 194 187 192 200 196 199 203 206 211 212 208 208 206 207 202 200 202 204 211 213 209 213 217 215 210 209 211 212 228 232 234 242 220 231 243 217 173 181
219 229 227 209 351 211 136 292 179 199 194 200 205 208 200 198 196 201 205 213 216 215 212 209 208 204 203 204 206 212 215 218 220 219 222 222 222 224 225 229 229 234 256 242 250 223 194 200 186
213 216 239 254 320 218 166 259 234 184 197 202 205 208 203 202 202 204 205 213 216 217 216 212 208 207 207 209 213 216 219 221 225 231 235 237 236 233 231 229 237 243 239 234 247 224 209 218 201
236 162 206 230 212 299 226 197 257 186 202 209 208 210 209 206 204 204 210 213 219 222 221 218 216 215 215 216 220 223 224 227 231 234 237 240 242 240 236 235 236 241 236 234 239 234 224 229 210
175 331 136 117 138 236 226 213 255 191 210 214 213 213 209 207 209 211 214 211 217 221 225 222 220 220 219 221 225 229 230 231 234 239 239 239 242 243 239 238 238 241 238 233 234 244 234 225 225
180 157 267 228 201 234 207 223 233 197 220 210 204 211 210 208 208 210 211 211 214 219 223 226 223 222 223 224 225 231 231 233 236 240 246 239 241 243 240 238 238 235 232 233 235 237 235 236 235
202 180 170 196 193 228 182 225 238 225 239 222 218 213 206 206 212 208 214 216 218 220 221 224 225 221 224 226 227 230 234 234 236 239 244 245 241 240 240 234 230 225 228 235 240 241 237 240 241
211 210 194 99 240 178 202 243 294 243 220 229 225 199 202 205 210 215 208 215 217 221 223 224 224 222 223 224 226 229 234 236 236 239 241 244 244 236 234 228 223 225 232 238 243 244 241 245 247
196 259 197 198 196 241 263 193 228 198 224 234 207 195 209 208 215 212 207 214 219 223 224 226 227 224 222 224 225 228 232 237 239 240 241 243 241 235 229 229 226 229 234 239 243 245 244 246 250
189 226 267 179 200 213 173 245 217 192 200 222 209 216 212 208 208 212 213 216 219 217 221 225 227 226 225 226 226 228 231 235 239 241 241 242 241 237 229 229 227 229 234 239 244 243 244 248 254
318 278 236 224 221 234 146 247 207 210 213 223 216 218 226 221 214 214 215 208 208 216 214 221 226 226 226 228 230 231 231 234 237 239 240 241 240 237 233 230 229 229 227 229 237 241 243 249 256
Wind_Speed_850mb
18 20 15 9 5 3 7 1 4 8 8 7 43 14 16 11 4 4 58 59 64 61 58 50 44 42 37 32 31 31 28 27 26 24 24 23 24 23 23 21 19 22 23 19 19 21 24 24 26
19 18 12 6 3 2 5 5 7 6 22 48 27 32 9 5 9 35 72 69 63 62 58 49 44 40 37 33 33 31 30 29 28 27 26 24 24 25 26 23 24 23 22 23 22 24 26 26 26
22 14 6 3 1 3 4 2 5 20 63 34 13 18 8 8 16 87 69 74 68 64 58 48 44 40 37 34 34 30 30 28 28 28 27 26 25 26 26 25 26 26 27 26 25 26 27 26 28
21 6 8 4 4 6 6 8 20 33 25 14 29 16 9 5 69 62 77 73 70 64 58 49 43 40 37 34 33 31 33 33 29 26 25 26 26 25 26 27 26 25 25 23 24 27 27 27 27
19 6 2 5 5 5 1 2 20 19 14 15 6 8 12 33 34 74 76 72 70 64 58 50 43 39 36 33 32 30 34 32 30 28 23 24 25 26 27 27 26 26 25 24 21 23 28 32 30
5 3 2 4 5 3 4 5 20 13 14 19 20 22 14 22 56 80 72 69 66 64 59 50 42 38 36 30 30 31 35 31 28 28 25 25 28 30 30 28 28 28 26 21 19 22 24 25 28
6 5 4 4 7 5 2 5 20 13 17 10 40 10 20 40 75 71 70 66 63 60 57 49 42 37 35 33 28 29 31 28 28 27 27 28 31 32 30 28 28 27 24 23 22 20 22 24 24
5 4 3 8 2 2 1 6 12 18 4 39 29 17 24 67 74 71 69 66 57 59 54 48 43 38 35 33 30 30 30 27 27 27 28 28 30 29 27 26 26 24 28 27 28 25 25 23 23
6 1 5 7 3 3 14 10 6 17 36 12 26 30 60 82 69 71 69 63 56 58 54 49 44 39 36 32 31 31 29 27 27 27 27 26 24 24 24 23 24 25 25 27 27 25 21 20 20
10 5 11 8 6 3 10 17 25 15 32 8 25 42 81 83 74 77 76 71 62 62 57 51 44 41 37 33 31 31 29 28 28 29 26 24 21 21 20 19 18 22 21 24 25 24 21 17 17
13 10 8 5 6 18 18 12 15 35 10 27 71 85 95 87 78 72 77 74 69 65 59 53 46 41 36 32 31 29 30 32 27 25 24 20 15 15 17 17 16 19 19 18 20 23 18 13 17
8 23 25 10 13 7 11 20 10 32 9 38 59 98 107 88 83 77 82 79 72 67 61 54 49 43 37 32 31 29 31 26 24 25 21 17 16 13 16 19 19 17 18 16 14 13 14 10 9
18 6 6 23 27 29 14 20 12 33 2 30 68 86 88 80 76 74 80 76 72 68 62 56 50 45 39 35 33 32 30 27 23 20 21 19 16 12 15 18 13 12 9 13 14 13 10 9 14
19 26 26 25 33 25 11 7 15 19 24 57 84 86 81 79 81 83 80 77 73 67 62 56 51 46 41 37 34 33 30 32 23 24 21 19 14 10 10 13 10 11 11 9 10 7 10 17 12
27 9 8 15 13 13 17 4 10 31 43 70 71 78 76 76 87 92 86 81 77 70 63 59 52 46 44 40 36 38 32 32 23 21 19 18 10 12 12 9 13 12 8 3 8 9 7 14 8
11 9 2 9 21 14 29 18 7 48 60 62 67 73 72 71 87 88 84 79 76 71 67 60 54 50 46 45 43 40 35 29 23 19 18 16 13 12 6 9 13 11 11 6 8 5 8 12 13
10 7 14 6 16 6 18 9 19 50 53 56 65 71 71 66 71 81 86 80 76 73 70 64 59 54 52 46 46 42 34 28 25 25 19 14 8 9 6 7 14 9 9 5 2 3 7 7 15
11 8 7 12 14 15 14 15 25 47 50 54 62 67 70 73 79 80 82 81 75 73 70 65 61 57 58 48 49 44 37 32 30 28 26 18 12 7 10 10 9 9 4 5 9 3 7 12 15
10 9 12 8 10 11 21 20 29 45 41 46 56 62 69 71 73 75 81 78 76 74 74 70 65 65 63 61 57 53 44 36 35 33 26 23 16 9 8 10 9 10 7 9 11 9 4 13 16
13 6 7 7 6 13 12 29 20 35 53 62 59 65 68 62 68 74 78 80 81 78 78 75 69 71 68 66 61 58 47 38 34 33 29 26 20 16 12 9 11 9 8 9 9 6 12 11 15
16 32 12 6 4 15 9 10 12 25 26 43 50 64 61 71 77 76 85 88 83 87 84 80 74 74 72 66 62 58 53 48 44 41 33 28 25 21 17 12 11 13 9 9 6 4 16 10 14
18 31 24 13 5 8 16 9 11 16 34 36 54 64 63 72 74 76 82 93 97 92 85 81 79 77 74 69 67 63 59 57 55 49 42 37 28 24 23 18 12 15 13 11 8 12 15 12 15
22 17 28 25 11 8 9 5 12 23 24 39 50 68 70 73 80 85 94 97 98 93 89 88 86 84 80 77 74 69 65 60 57 56 52 49 42 34 29 24 19 14 15 16 17 15 19 15 20
12 2 7 7 9 19 24 14 11 14 33 35 49 63 71 76 83 89 93 89 92 94 92 92 90 90 85 82 77 78 75 68 62 58 62 60 53 46 38 31 27 19 15 17 20 15 16 20 21
25 20 4 6 10 26 21 24 27 11 25 36 43 71 76 78 76 88 91 93 95 98 100 100 100 94 91 84 78 78 81 73 61 55 51 60 64 58 49 43 33 26 20 19 23 24 21 23 28
29 20 13 17 9 25 11 17 15 40 32 45 60 65 61 68 77 80 93 101 102 102 101 103 104 99 95 90 82 75 79 79 69 60 53 50 56 55 45 39 37 30 24 22 24 26 28 25 26
13 34 21 9 2 3 19 10 14 12 37 41 41 44 63 80 89 97 88 99 102 104 107 109 106 106 93 93 86 81 77 81 77 66 57 52 50 50 48 38 37 36 32 30 28 30 30 30 33
16 6 15 6 14 10 7 14 21 22 20 27 14 40 62 79 94 76 85 97 102 100 106 110 110 106 96 92 92 83 77 76 80 73 64 57 53 51 50 46 42 40 37 36 37 35 33 36 33
9 18 11 13 15 16 4 12 13 24 31 30 25 56 62 74 86 93 98 99 98 95 99 107 112 111 107 95 94 89 81 77 82 79 67 61 57 52 53 51 47 45 42 40 41 38 38 37 33
10 10 14 16 23 13 8 15 8 19 17 26 42 66 71 76 91 95 94 94 93 98 100 108 111 110 105 99 96 96 88 79 79 81 70 62 62 58 55 53 50 50 50 47 45 44 43 43 44
Wind_Direction_850mb
161 161 158 182 227 233 269 137 97 99 97 140 141 151 152 76 157 169 147 153 154 148 146 145 144 138 132 131 127 124 126 123 125 127 131 132 133 132 127 124 119 118 115 108 103 91 97 111 117
161 157 181 271 279 274 334 6 30 136 120 127 104 116 89 91 116 143 149 155 157 152 151 147 146 139 136 134 128 124 126 125 124 125 127 126 126 130 126 123 121 120 111 110 97 104 103 109 114
157 167 277 257 171 205 242 73 322 119 142 131 105 98 75 118 147 149 155 155 158 156 153 149 149 142 140 136 130 133 131 128 126 125 123 126 127 128 128 121 120 114 105 101 104 108 105 103 111
156 191 276 266 228 225 210 336 119 123 115 118 121 74 74 164 148 156 155 157 160 158 155 152 149 146 143 138 138 135 131 127 127 126 125 124 122 125 129 123 118 113 109 106 104 112 111 109 110
160 200 283 282 258 258 188 105 127 130 91 71 79 106 89 127 159 155 156 160 162 159 159 155 150 149 145 138 133 134 132 127 123 119 123 125 124 123 122 123 117 110 104 109 119 119 117 111 114
172 144 125 238 256 280 5 46 138 102 116 130 101 112 132 157 158 155 158 161 162 161 160 157 153 151 145 142 137 136 135 132 128 122 120 119 120 118 118 121 117 106 98 104 122 131 129 115 115
178 130 234 266 242 158 210 13 141 117 134 143 143 100 141 158 159 157 160 162 161 162 162 160 158 154 149 146 143 140 136 137 135 131 127 121 121 119 118 118 110 100 95 91 115 125 131 124 118
203 125 276 244 272 198 156 88 118 105 99 134 155 162 169 167 161 160 161 161 163 165 167 164 162 158 154 152 150 145 140 141 140 136 129 129 129 124 119 114 111 100 91 90 100 106 121 117 107
200 288 237 251 201 160 152 148 130 122 143 156 179 161 166 163 161 160 162 162 166 170 170 169 167 162 158 155 153 150 144 147 143 137 133 133 133 129 122 120 116 105 97 96 101 103 112 106 100
204 189 226 221 166 166 157 171 140 144 156 99 129 152 161 161 165 164 167 168 172 172 173 171 171 166 162 160 160 154 147 148 141 135 132 132 136 140 136 129 120 120 112 104 108 109 101 97 99
186 215 222 307 128 144 151 142 152 147 208 179 151 154 163 164 169 169 173 174 176 174 174 174 174 170 167 165 164 156 150 149 145 143 139 133 137 151 147 137 122 128 129 125 120 107 113 113 104
210 231 259 311 335 320 176 159 159 171 217 208 184 171 167 168 171 174 177 178 179 178 176 175 176 173 170 170 165 160 157 158 148 144 137 133 133 138 144 146 142 134 131 135 135 133 138 170 146
234 210 249 246 283 300 189 176 185 205 230 167 166 167 169 169 173 179 181 182 181 181 177 177 177 174 174 174 168 162 159 157 157 153 138 146 140 151 157 142 135 119 139 154 146 136 120 120 168
227 239 277 284 274 280 235 155 183 160 170 159 164 167 173 175 178 182 185 185 186 184 181 179 179 176 180 176 175 168 165 170 150 142 133 138 124 143 174 186 152 141 134 150 165 165 114 123 120
246 312 319 234 235 232 215 280 220 171 166 157 166 170 176 180 184 188 188 190 187 187 184 184 181 179 183 179 178 172 162 165 163 157 142 131 139 146 151 139 151 147 159 151 159 138 145 147 131
180 113 193 276 184 240 166 239 119 161 155 166 170 176 180 185 193 193 193 193 193 190 190 188 186 184 184 181 178 173 175 178 183 171 158 151 149 172 158 175 166 157 157 125 137 117 116 144 156
358 195 197 285 201 158 182 222 158 167 167 174 177 180 184 189 195 199 201 198 198 195 193 192 191 189 184 182 184 188 189 197 199 201 189 177 164 178 182 188 192 179 161 163 122 127 102 133 155
202 220 222 174 207 183 196 220 161 174 174 181 181 186 188 194 197 202 206 203 203 202 199 198 196 193 190 189 190 193 200 201 201 200 197 184 181 174 175 198 205 189 203 213 172 138 106 149 166
167 196 216 212 204 142 201 222 178 178 182 185 186 190 196 199 198 202 209 209 208 207 204 203 201 197 196 196 197 201 206 204 204 208 210 197 193 192 191 222 231 212 244 218 184 171 184 170 188
232 241 252 289 226 176 214 233 178 179 197 194 187 192 200 196 199 203 206 211 212 208 208 206 207 202 200 202 204 211 213 209 213 217 215 210 209 211 212 228 232 234 242 220 231 243 217 173 181
219 229 227 209 351 211 136 292 179 199 194 200 205 208 200 198 196 201 205 213 216 215 212 209 208 204 203 204 206 212 215 218 220 219 222 222 222 224 225 229 229 234 256 242 250 223 194 200 186
213 216 239 254 320 218 166 259 234 184 197 202 205 208 203 202 202 204 205 213 216 217 216 212 208 207 207 209 213 216 219 221 225 231 235 237 236 233 231 229 237 243 239 234 247 224 209 218 201
236 162 206 230 212 299 226 197 257 186 202 209 208 210 209 206 204 204 210 213 219 222 221 218 216 215 215 216 220 223 224 227 231 234 237 240 242 240 236 235 236 241 236 234 239 234 224 229 210
175 331 136 117 138 236 226 213 255 191 210 214 213 213 209 207 209 211 214 211 217 221 225 222 220 220 219 221 225 229 230 231 234 239 239 239 242 243 239 238 238 241 238 233 234 244 234 225 225
180 157 267 228 201 234 207 223 233 197 220 210 204 211 210 208 208 210 211 211 214 219 223 226 223 222 223 224 225 231 231 233 236 240 246 239 241 243 240 238 238 235 232 233 235 237 235 236 235
202 180 170 196 193 228 182 225 238 225 239 222 218 213 206 206 212 208 214 216 218 220 221 224 225 221 224 226 227 230 234 234 236 239 244 245 241 240 240 234 230 225 228 235 240 241 237 240 241
211 210 194 99 240 178 202 243 294 243 220 229 225 199 202 205 210 215 208 215 217 221 223 224 224 222 223 224 226 229 234 236 236 239 241 244 244 236 234 228 223 225 232 238 243 244 241 245 247
196 259 197 198 196 241 263 193 228 198 224 234 207 195 209 208 215 212 207 214 219 223 224 226 227 224 222 224 225 228 232 237 239 240 241 243 241 235 229 229 226 229 234 239 243 245 244 246 250
189 226 267 179 200 213 173 245 217 192 200 222 209 216 212 208 208 212 213 216 219 217 221 225 227 226 225 226 226 228 231 235 239 241 241 242 241 237 229 229 227 229 234 239 244 243 244 248 254
318 278 236 224 221 234 146 247 207 210 213 223 216 218 226 221 214 214 215 208 208 216 214 221 226 226 226 228 230 231 231 234 237 239 240 241 240 237 233 230 229 229 227 229 237 241 243 249 256